Time,TemperatureF,DewpointF,PressureIn,WindDirection,WindDirectionDegrees,WindSpeedMPH,WindSpeedGustMPH,Humidity,HourlyPrecipIn,Conditions,Clouds,dailyrainin,SoftwareType,DateUTC
2013-01-03 00:00:00,71.2,70.7,29.94,SE,135,0.0,1.0,98,0.00,,,0.00,meteohub,2013-01-03 05:00:00,
2013-01-03 00:01:00,71.2,70.7,29.94,South,180,0.0,1.0,98,0.00,,,0.00,meteohub,2013-01-03 05:01:00,
2013-01-03 00:04:00,71.2,70.7,29.94,South,180,0.0,1.0,98,0.00,,,0.00,meteohub,2013-01-03 05:04:00,
2013-01-03 00:09:00,71.1,70.2,29.94,SW,225,0.0,1.0,97,0.00,,,0.00,meteohub,2013-01-03 05:09:00,
2013-01-03 00:15:00,70.9,70.0,29.94,SW,225,0.0,1.0,97,0.00,,,0.00,meteohub,2013-01-03 05:15:00,
2013-01-03 00:20:00,70.7,69.8,29.94,SW,225,0.0,0.0,97,0.00,,,0.00,meteohub,2013-01-03 05:20:00,
2013-01-03 00:25:00,70.5,70.0,29.93,SW,225,0.0,0.0,98,0.00,,,0.00,meteohub,2013-01-03 05:25:00,
2013-01-03 00:30:00,70.3,69.8,29.93,SW,225,0.0,0.0,98,0.00,,,0.00,meteohub,2013-01-03 05:30:00,
2013-01-03 00:35:00,70.3,70.0,29.93,West,270,0.0,0.0,99,0.00,,,0.00,meteohub,2013-01-03 05:35:00,
2013-01-03 00:40:00,70.2,69.8,29.94,West,270,0.0,0.0,99,0.00,,,0.00,meteohub,2013-01-03 05:40:00,
2013-01-03 00:45:00,70.0,69.6,29.94,NW,315,1.0,1.0,99,0.00,,,0.00,meteohub,2013-01-03 05:45:00,
2013-01-03 00:50:00,69.8,69.4,29.93,NW,315,1.0,2.0,99,0.00,,,0.00,meteohub,2013-01-03 05:50:00,
2013-01-03 00:55:00,69.8,69.4,29.94,NW,315,0.0,2.0,99,0.00,,,0.00,meteohub,2013-01-03 05:55:00,
2013-01-03 01:01:00,69.6,69.3,29.94,NW,315,0.0,2.0,99,0.00,,,0.00,meteohub,2013-01-03 06:01:00,
2013-01-03 01:06:00,69.6,69.3,29.94,NW,315,0.0,1.0,99,0.00,,,0.00,meteohub,2013-01-03 06:06:00,
2013-01-03 01:11:00,69.4,69.1,29.94,NW,315,1.0,2.0,99,0.00,,,0.00,meteohub,2013-01-03 06:11:00,
2013-01-03 01:16:00,69.6,69.3,29.94,West,270,1.0,2.0,99,0.00,,,0.00,meteohub,2013-01-03 06:16:00,
2013-01-03 01:21:00,69.6,69.3,29.94,West,270,1.0,2.0,99,0.00,,,0.00,meteohub,2013-01-03 06:21:00,
2013-01-03 01:26:00,69.6,69.3,29.94,NW,315,1.0,2.0,99,0.00,,,0.00,meteohub,2013-01-03 06:26:00,
2013-01-03 01:31:00,69.6,69.3,29.94,NW,315,2.0,2.0,99,0.00,,,0.00,meteohub,2013-01-03 06:31:00,
2013-01-03 01:36:00,69.6,69.3,29.94,North,0,2.0,2.0,99,0.00,,,0.00,meteohub,2013-01-03 06:36:00,
2013-01-03 01:41:00,69.6,69.3,29.94,NW,315,2.0,3.0,99,0.00,,,0.00,meteohub,2013-01-03 06:41:00,
2013-01-03 01:47:00,69.4,69.1,29.94,North,0,2.0,3.0,99,0.00,,,0.00,meteohub,2013-01-03 06:47:00,
2013-01-03 01:52:00,69.4,69.1,29.94,North,0,2.0,3.0,99,0.00,,,0.00,meteohub,2013-01-03 06:52:00,
2013-01-03 01:57:00,69.4,69.1,29.94,North,0,3.0,3.0,99,0.00,,,0.00,meteohub,2013-01-03 06:57:00,
2013-01-03 02:02:00,69.4,69.1,29.94,NW,315,2.0,3.0,99,0.00,,,0.00,meteohub,2013-01-03 07:02:00,
2013-01-03 02:07:00,69.3,68.9,29.94,North,0,0.0,3.0,99,0.00,,,0.00,meteohub,2013-01-03 07:07:00,
2013-01-03 02:12:00,69.1,68.7,29.93,NW,315,1.0,3.0,99,0.00,,,0.00,meteohub,2013-01-03 07:12:00,
2013-01-03 02:17:00,68.9,68.5,29.93,NW,315,0.0,2.0,99,0.00,,,0.00,meteohub,2013-01-03 07:17:00,
2013-01-03 02:22:00,68.5,68.2,29.93,West,270,1.0,2.0,99,0.00,,,0.00,meteohub,2013-01-03 07:22:00,
2013-01-03 02:27:00,68.5,68.2,29.93,West,270,0.0,1.0,99,0.00,,,0.00,meteohub,2013-01-03 07:27:00,
2013-01-03 02:32:00,68.2,67.8,29.93,NW,315,1.0,1.0,99,0.00,,,0.00,meteohub,2013-01-03 07:32:00,
2013-01-03 02:37:00,68.2,67.8,29.93,North,0,1.0,2.0,99,0.00,,,0.00,meteohub,2013-01-03 07:37:00,
2013-01-03 02:42:00,68.0,67.6,29.93,NW,315,2.0,2.0,99,0.00,,,0.00,meteohub,2013-01-03 07:42:00,
2013-01-03 02:47:00,67.8,67.5,29.94,North,0,2.0,2.0,99,0.00,,,0.00,meteohub,2013-01-03 07:47:00,
2013-01-03 02:52:00,67.8,67.5,29.93,North,0,2.0,2.0,99,0.00,,,0.00,meteohub,2013-01-03 07:52:00,
2013-01-03 02:57:00,67.8,67.5,29.93,North,0,1.0,2.0,99,0.00,,,0.00,meteohub,2013-01-03 07:57:00,
2013-01-03 03:02:00,67.6,67.3,29.93,NW,315,3.0,3.0,99,0.00,,,0.00,meteohub,2013-01-03 08:02:00,
2013-01-03 03:07:00,67.8,67.5,29.93,North,0,1.0,3.0,99,0.00,,,0.00,meteohub,2013-01-03 08:07:00,
2013-01-03 03:12:00,67.6,67.3,29.93,NW,315,2.0,3.0,99,0.00,,,0.00,meteohub,2013-01-03 08:12:00,
2013-01-03 03:17:00,67.6,67.3,29.93,NNW,338,0.0,3.0,99,0.00,,,0.00,meteohub,2013-01-03 08:17:00,
2013-01-03 03:22:00,67.5,67.1,29.94,East,90,1.0,2.0,99,0.00,,,0.00,meteohub,2013-01-03 08:22:00,
2013-01-03 03:27:00,67.5,67.1,29.93,East,90,1.0,2.0,99,0.00,,,0.00,meteohub,2013-01-03 08:27:00,
2013-01-03 03:32:00,67.3,66.9,29.94,East,90,0.0,2.0,99,0.00,,,0.00,meteohub,2013-01-03 08:32:00,
2013-01-03 03:38:00,67.1,66.7,29.93,East,90,0.0,2.0,99,0.00,,,0.00,meteohub,2013-01-03 08:38:00,
2013-01-03 03:43:00,67.1,66.7,29.93,East,90,0.0,2.0,99,0.00,,,0.00,meteohub,2013-01-03 08:43:00,
2013-01-03 03:48:00,66.9,66.6,29.93,East,90,0.0,1.0,99,0.00,,,0.00,meteohub,2013-01-03 08:48:00,
2013-01-03 03:53:00,66.9,66.6,29.94,East,90,0.0,0.0,99,0.00,,,0.00,meteohub,2013-01-03 08:53:00,
2013-01-03 03:58:00,66.9,66.6,29.93,East,90,0.0,0.0,99,0.00,,,0.00,meteohub,2013-01-03 08:58:00,
2013-01-03 04:03:00,66.7,66.4,29.94,NE,45,1.0,0.0,99,0.00,,,0.00,meteohub,2013-01-03 09:03:00,
2013-01-03 04:08:00,66.7,66.4,29.94,NE,45,0.0,1.0,99,0.00,,,0.00,meteohub,2013-01-03 09:08:00,
2013-01-03 04:14:00,66.6,66.2,29.93,NE,45,0.0,1.0,99,0.00,,,0.00,meteohub,2013-01-03 09:14:00,
2013-01-03 04:19:00,66.4,66.0,29.93,NE,45,0.0,1.0,99,0.00,,,0.00,meteohub,2013-01-03 09:19:00,
2013-01-03 04:24:00,66.4,66.0,29.94,NE,45,0.0,1.0,99,0.00,,,0.00,meteohub,2013-01-03 09:24:00,
2013-01-03 04:29:00,66.6,66.2,29.93,West,270,0.0,0.0,99,0.00,,,0.00,meteohub,2013-01-03 09:29:00,
2013-01-03 04:34:00,66.4,66.0,29.94,West,270,1.0,1.0,99,0.00,,,0.00,meteohub,2013-01-03 09:34:00,
2013-01-03 04:40:00,66.6,66.2,29.93,West,270,0.0,1.0,99,0.00,,,0.00,meteohub,2013-01-03 09:40:00,
2013-01-03 04:45:00,66.6,66.2,29.93,West,270,1.0,1.0,99,0.00,,,0.00,meteohub,2013-01-03 09:45:00,
2013-01-03 04:50:00,66.7,66.4,29.94,NW,315,1.0,1.0,99,0.00,,,0.00,meteohub,2013-01-03 09:50:00,
2013-01-03 04:55:00,66.7,66.4,29.94,NW,315,1.0,1.0,99,0.00,,,0.00,meteohub,2013-01-03 09:55:00,
2013-01-03 05:01:00,66.7,66.4,29.93,West,270,1.0,1.0,99,0.00,,,0.00,meteohub,2013-01-03 10:01:00,
2013-01-03 05:06:00,66.9,66.6,29.94,West,270,1.0,1.0,99,0.00,,,0.00,meteohub,2013-01-03 10:06:00,
2013-01-03 05:11:00,66.9,66.6,29.94,SW,225,0.0,2.0,99,0.00,,,0.00,meteohub,2013-01-03 10:11:00,
2013-01-03 05:16:00,66.9,66.6,29.93,SW,225,1.0,2.0,99,0.00,,,0.00,meteohub,2013-01-03 10:16:00,
2013-01-03 05:21:00,66.7,66.4,29.94,SW,225,0.0,2.0,99,0.00,,,0.00,meteohub,2013-01-03 10:21:00,
2013-01-03 05:26:00,66.6,66.2,29.93,SW,225,0.0,1.0,99,0.00,,,0.00,meteohub,2013-01-03 10:26:00,
2013-01-03 05:31:00,66.4,66.0,29.94,SW,225,0.0,1.0,99,0.00,,,0.00,meteohub,2013-01-03 10:31:00,
2013-01-03 05:37:00,66.4,66.0,29.94,SW,225,0.0,1.0,99,0.00,,,0.00,meteohub,2013-01-03 10:37:00,
2013-01-03 05:42:00,66.6,66.2,29.94,SE,135,1.0,1.0,99,0.00,,,0.00,meteohub,2013-01-03 10:42:00,
2013-01-03 05:47:00,66.4,66.0,29.94,SE,135,0.0,2.0,99,0.00,,,0.00,meteohub,2013-01-03 10:47:00,
2013-01-03 05:52:00,66.2,65.8,29.94,SE,135,0.0,2.0,99,0.00,,,0.00,meteohub,2013-01-03 10:52:00,
2013-01-03 05:57:00,66.0,65.7,29.94,SE,135,0.0,2.0,99,0.00,,,0.00,meteohub,2013-01-03 10:57:00,
2013-01-03 06:02:00,66.0,65.7,29.95,South,180,1.0,0.0,99,0.00,,,0.00,meteohub,2013-01-03 11:02:00,
2013-01-03 06:07:00,66.0,65.7,29.95,SW,225,0.0,0.0,99,0.00,,,0.00,meteohub,2013-01-03 11:07:00,
2013-01-03 06:13:00,66.0,65.7,29.95,SW,225,0.0,1.0,99,0.00,,,0.00,meteohub,2013-01-03 11:13:00,
2013-01-03 06:18:00,65.8,65.5,29.95,SW,225,0.0,1.0,99,0.00,,,0.00,meteohub,2013-01-03 11:18:00,
2013-01-03 06:23:00,66.0,65.7,29.96,SW,225,0.0,0.0,99,0.00,,,0.00,meteohub,2013-01-03 11:23:00,
2013-01-03 06:28:00,66.4,66.0,29.95,SW,225,0.0,0.0,99,0.00,,,0.00,meteohub,2013-01-03 11:28:00,
2013-01-03 06:33:00,66.6,66.2,29.95,NW,315,0.0,1.0,99,0.00,,,0.00,meteohub,2013-01-03 11:33:00,
2013-01-03 06:38:00,66.6,66.2,29.96,NW,315,0.0,1.0,99,0.00,,,0.00,meteohub,2013-01-03 11:38:00,
2013-01-03 06:43:00,66.6,66.2,29.96,NW,315,0.0,1.0,99,0.00,,,0.00,meteohub,2013-01-03 11:43:00,
2013-01-03 06:49:00,66.6,66.2,29.96,NW,315,0.0,1.0,99,0.00,,,0.00,meteohub,2013-01-03 11:49:00,
2013-01-03 06:54:00,66.6,66.2,29.96,NW,315,0.0,0.0,99,0.00,,,0.00,meteohub,2013-01-03 11:54:00,
2013-01-03 06:59:00,66.6,66.2,29.96,NE,45,0.0,0.0,99,0.00,,,0.00,meteohub,2013-01-03 11:59:00,
2013-01-03 07:04:00,66.6,66.2,29.96,NE,45,0.0,0.0,99,0.00,,,0.00,meteohub,2013-01-03 12:04:00,
2013-01-03 07:09:00,66.6,66.2,29.96,NE,45,0.0,0.0,99,0.00,,,0.00,meteohub,2013-01-03 12:09:00,
2013-01-03 07:14:00,66.7,66.4,29.97,NE,45,0.0,0.0,99,0.00,,,0.00,meteohub,2013-01-03 12:14:00,
2013-01-03 07:19:00,66.6,66.2,29.97,NE,45,0.0,0.0,99,0.00,,,0.00,meteohub,2013-01-03 12:19:00,
2013-01-03 07:24:00,66.7,66.4,29.97,NE,45,0.0,0.0,99,0.00,,,0.00,meteohub,2013-01-03 12:24:00,
2013-01-03 07:30:00,66.7,66.4,29.97,SE,135,0.0,0.0,99,0.00,,,0.00,meteohub,2013-01-03 12:30:00,
2013-01-03 07:35:00,66.7,66.4,29.98,SE,135,0.0,0.0,99,0.00,,,0.00,meteohub,2013-01-03 12:35:00,
2013-01-03 07:40:00,67.1,66.7,29.97,SE,135,0.0,0.0,99,0.00,,,0.00,meteohub,2013-01-03 12:40:00,
2013-01-03 07:45:00,67.5,67.1,29.98,SE,135,0.0,0.0,99,0.00,,,0.00,meteohub,2013-01-03 12:45:00,
2013-01-03 07:50:00,68.0,67.6,29.98,SE,135,0.0,0.0,99,0.00,,,0.00,meteohub,2013-01-03 12:50:00,
2013-01-03 07:55:00,68.9,68.5,29.98,SE,135,0.0,0.0,99,0.00,,,0.00,meteohub,2013-01-03 12:55:00,
2013-01-03 08:00:00,69.3,68.9,29.98,SE,135,0.0,0.0,99,0.00,,,0.00,meteohub,2013-01-03 13:00:00,
2013-01-03 08:06:00,69.4,69.1,29.98,East,90,0.0,2.0,99,0.00,,,0.00,meteohub,2013-01-03 13:06:00,
2013-01-03 08:11:00,71.1,70.7,29.99,East,90,0.0,2.0,99,0.00,,,0.00,meteohub,2013-01-03 13:11:00,
2013-01-03 08:16:00,72.7,72.3,29.98,East,90,2.0,2.0,99,0.00,,,0.00,meteohub,2013-01-03 13:16:00,
2013-01-03 08:21:00,73.6,73.2,29.99,SE,135,1.0,2.0,99,0.00,,,0.00,meteohub,2013-01-03 13:21:00,
2013-01-03 08:26:00,73.4,73.0,29.99,East,90,1.0,2.0,99,0.00,,,0.00,meteohub,2013-01-03 13:26:00,
2013-01-03 08:31:00,72.9,72.5,29.99,East,90,2.0,2.0,99,0.00,,,0.00,meteohub,2013-01-03 13:31:00,
2013-01-03 08:36:00,72.3,72.0,29.99,East,90,2.0,2.0,99,0.00,,,0.00,meteohub,2013-01-03 13:36:00,
2013-01-03 08:41:00,72.1,71.8,29.99,East,90,1.0,2.0,99,0.00,,,0.00,meteohub,2013-01-03 13:41:00,
2013-01-03 08:46:00,72.5,72.1,29.99,East,90,1.0,2.0,99,0.00,,,0.00,meteohub,2013-01-03 13:46:00,
2013-01-03 08:51:00,72.9,72.3,29.99,East,90,2.0,2.0,98,0.00,,,0.00,meteohub,2013-01-03 13:51:00,
2013-01-03 08:57:00,73.8,73.2,29.99,East,90,2.0,2.0,98,0.00,,,0.00,meteohub,2013-01-03 13:57:00,
2013-01-03 09:02:00,75.0,73.4,29.99,East,90,1.0,2.0,95,0.00,,,0.00,meteohub,2013-01-03 14:02:00,
2013-01-03 09:07:00,75.9,73.4,29.99,SE,135,2.0,2.0,92,0.00,,,0.00,meteohub,2013-01-03 14:07:00,
2013-01-03 09:12:00,76.6,73.4,29.99,East,90,0.0,2.0,90,0.00,,,0.00,meteohub,2013-01-03 14:12:00,
2013-01-03 09:17:00,78.3,74.1,30.00,NW,315,1.0,2.0,87,0.00,,,0.00,meteohub,2013-01-03 14:17:00,
2013-01-03 09:22:00,80.8,74.5,30.00,SE,135,2.0,2.0,81,0.00,,,0.00,meteohub,2013-01-03 14:22:00,
2013-01-03 09:27:00,82.4,73.8,29.99,SE,135,2.0,2.0,75,0.00,,,0.00,meteohub,2013-01-03 14:27:00,
2013-01-03 09:32:00,82.9,73.8,29.99,SE,135,1.0,2.0,74,0.00,,,0.00,meteohub,2013-01-03 14:32:00,
2013-01-03 09:37:00,82.8,73.6,29.99,East,90,2.0,2.0,74,0.00,,,0.00,meteohub,2013-01-03 14:37:00,
2013-01-03 09:42:00,82.8,72.9,30.00,South,180,1.0,3.0,72,0.00,,,0.00,meteohub,2013-01-03 14:42:00,
2013-01-03 09:47:00,82.4,72.0,30.00,South,180,4.0,4.0,71,0.00,,,0.00,meteohub,2013-01-03 14:47:00,
2013-01-03 09:52:00,81.7,72.1,29.99,SSW,203,3.0,4.0,73,0.00,,,0.00,meteohub,2013-01-03 14:52:00,
2013-01-03 09:57:00,81.5,72.3,29.99,South,180,4.0,4.0,74,0.00,,,0.00,meteohub,2013-01-03 14:57:00,
2013-01-03 10:03:00,81.3,72.3,30.00,SE,135,3.0,4.0,74,0.00,,,0.00,meteohub,2013-01-03 15:03:00,
2013-01-03 10:08:00,81.0,72.0,30.00,SW,225,2.0,4.0,74,0.00,,,0.00,meteohub,2013-01-03 15:08:00,
2013-01-03 10:13:00,80.2,71.2,30.00,SW,225,3.0,4.0,74,0.00,,,0.00,meteohub,2013-01-03 15:13:00,
2013-01-03 10:18:00,81.0,72.0,30.00,SE,135,2.0,11.0,74,0.00,,,0.00,meteohub,2013-01-03 15:18:00,
2013-01-03 10:23:00,82.2,72.0,30.00,South,180,2.0,11.0,71,0.00,,,0.00,meteohub,2013-01-03 15:23:00,
2013-01-03 10:28:00,82.4,71.6,30.00,East,90,3.0,11.0,70,0.00,,,0.00,meteohub,2013-01-03 15:28:00,
2013-01-03 10:33:00,82.8,71.6,30.00,South,180,3.0,8.0,69,0.00,,,0.00,meteohub,2013-01-03 15:33:00,
2013-01-03 10:39:00,82.6,71.4,30.00,East,90,6.0,8.0,69,0.00,,,0.00,meteohub,2013-01-03 15:39:00,
2013-01-03 10:44:00,82.6,70.5,29.99,East,90,7.0,8.0,67,0.00,,,0.00,meteohub,2013-01-03 15:44:00,
2013-01-03 10:49:00,82.9,70.9,29.99,South,180,5.0,8.0,67,0.00,,,0.00,meteohub,2013-01-03 15:49:00,
2013-01-03 10:54:00,81.5,70.3,29.99,East,90,5.0,8.0,69,0.00,,,0.00,meteohub,2013-01-03 15:54:00,
2013-01-03 10:59:00,82.2,71.1,29.99,South,180,2.0,8.0,69,0.00,,,0.00,meteohub,2013-01-03 15:59:00,
2013-01-03 11:04:00,83.1,70.5,29.99,SW,225,6.0,8.0,66,0.00,,,0.00,meteohub,2013-01-03 16:04:00,
2013-01-03 11:09:00,82.9,70.9,29.99,South,180,4.0,6.0,67,0.00,,,0.00,meteohub,2013-01-03 16:09:00,
2013-01-03 11:15:00,83.7,70.2,29.99,West,270,2.0,6.0,64,0.00,,,0.00,meteohub,2013-01-03 16:15:00,
2013-01-03 11:20:00,83.5,69.6,29.99,South,180,5.0,6.0,63,0.00,,,0.00,meteohub,2013-01-03 16:20:00,
2013-01-03 11:25:00,83.1,69.6,29.98,SW,225,2.0,6.0,64,0.00,,,0.00,meteohub,2013-01-03 16:25:00,
2013-01-03 11:30:00,81.9,68.9,29.98,East,90,3.0,8.0,65,0.00,,,0.00,meteohub,2013-01-03 16:30:00,
2013-01-03 11:35:00,81.3,69.3,29.98,SW,225,4.0,8.0,67,0.00,,,0.00,meteohub,2013-01-03 16:35:00,
2013-01-03 11:40:00,82.6,69.6,29.98,South,180,2.0,8.0,65,0.00,,,0.00,meteohub,2013-01-03 16:40:00,
2013-01-03 11:45:00,82.2,69.3,29.97,SW,225,3.0,5.0,65,0.00,,,0.00,meteohub,2013-01-03 16:45:00,
2013-01-03 11:50:00,81.5,69.1,29.97,SW,225,3.0,5.0,66,0.00,,,0.00,meteohub,2013-01-03 16:50:00,
2013-01-03 11:55:00,81.1,69.1,29.97,South,180,2.0,5.0,67,0.00,,,0.00,meteohub,2013-01-03 16:55:00,
2013-01-03 12:01:00,80.8,68.4,29.96,SW,225,3.0,4.0,66,0.00,,,0.00,meteohub,2013-01-03 17:01:00,
2013-01-03 12:06:00,80.6,68.5,29.96,South,180,4.0,4.0,67,0.00,,,0.00,meteohub,2013-01-03 17:06:00,
2013-01-03 12:11:00,82.2,68.9,29.96,SW,225,7.0,7.0,64,0.00,,,0.00,meteohub,2013-01-03 17:11:00,
2013-01-03 12:16:00,82.8,68.9,29.96,SW,225,4.0,8.0,63,0.00,,,0.00,meteohub,2013-01-03 17:16:00,
2013-01-03 12:21:00,84.0,69.1,29.95,South,180,4.0,8.0,61,0.00,,,0.00,meteohub,2013-01-03 17:21:00,
2013-01-03 12:27:00,82.9,67.6,29.95,SW,225,5.0,8.0,60,0.00,,,0.00,meteohub,2013-01-03 17:27:00,
2013-01-03 12:32:00,83.5,69.6,29.95,South,180,2.0,5.0,63,0.00,,,0.00,meteohub,2013-01-03 17:32:00,
2013-01-03 12:37:00,83.7,68.4,29.94,SW,225,8.0,8.0,60,0.00,,,0.00,meteohub,2013-01-03 17:37:00,
2013-01-03 12:42:00,82.4,67.6,29.94,South,180,4.0,9.0,61,0.00,,,0.00,meteohub,2013-01-03 17:42:00,
2013-01-03 12:47:00,81.9,68.0,29.94,SW,225,5.0,9.0,63,0.00,,,0.00,meteohub,2013-01-03 17:47:00,
2013-01-03 12:52:00,83.1,68.4,29.94,East,90,7.0,9.0,61,0.00,,,0.00,meteohub,2013-01-03 17:52:00,
2013-01-03 12:57:00,82.8,68.0,29.94,East,90,4.0,8.0,61,0.00,,,0.00,meteohub,2013-01-03 17:57:00,
2013-01-03 13:02:00,82.9,68.2,29.93,East,90,4.0,8.0,61,0.00,,,0.00,meteohub,2013-01-03 18:02:00,
2013-01-03 13:07:00,82.6,67.8,29.93,South,180,4.0,8.0,61,0.00,,,0.00,meteohub,2013-01-03 18:07:00,
2013-01-03 13:12:00,82.2,68.9,29.92,SE,135,2.0,8.0,64,0.00,,,0.00,meteohub,2013-01-03 18:12:00,
2013-01-03 13:17:00,84.0,68.7,29.92,SW,225,5.0,8.0,60,0.00,,,0.00,meteohub,2013-01-03 18:17:00,
2013-01-03 13:22:00,84.9,68.9,29.92,SE,135,4.0,8.0,59,0.00,,,0.00,meteohub,2013-01-03 18:22:00,
2013-01-03 13:27:00,86.0,69.4,29.92,South,180,4.0,7.0,58,0.00,,,0.00,meteohub,2013-01-03 18:27:00,
2013-01-03 13:32:00,84.2,68.4,29.91,East,90,3.0,7.0,59,0.00,,,0.00,meteohub,2013-01-03 18:32:00,
2013-01-03 13:37:00,83.3,68.4,29.92,NE,45,4.0,8.0,61,0.00,,,0.00,meteohub,2013-01-03 18:37:00,
2013-01-03 13:42:00,83.3,68.0,29.92,South,180,4.0,8.0,60,0.00,,,0.00,meteohub,2013-01-03 18:42:00,
2013-01-03 13:47:00,84.4,68.9,29.91,NW,315,2.0,7.0,60,0.00,,,0.00,meteohub,2013-01-03 18:47:00,
2013-01-03 13:52:00,83.8,68.5,29.91,South,180,3.0,10.0,60,0.00,,,0.00,meteohub,2013-01-03 18:52:00,
2013-01-03 13:57:00,82.8,68.4,29.91,SE,135,4.0,10.0,62,0.00,,,0.00,meteohub,2013-01-03 18:57:00,
2013-01-03 14:02:00,83.1,67.8,29.91,ESE,113,10.0,10.0,60,0.00,,,0.00,meteohub,2013-01-03 19:02:00,
2013-01-03 14:07:00,85.3,69.3,29.91,South,180,4.0,10.0,59,0.00,,,0.00,meteohub,2013-01-03 19:07:00,
2013-01-03 14:12:00,84.4,68.0,29.91,WSW,248,4.0,10.0,58,0.00,,,0.00,meteohub,2013-01-03 19:12:00,
2013-01-03 14:17:00,82.8,67.5,29.91,South,180,4.0,10.0,60,0.00,,,0.00,meteohub,2013-01-03 19:17:00,
2013-01-03 14:36:00,82.9,67.1,29.91,SW,225,4.0,7.0,59,0.00,,,0.00,meteohub,2013-01-03 19:36:00,
2013-01-03 14:42:00,82.0,67.3,29.92,South,180,2.0,6.0,61,0.00,,,0.00,meteohub,2013-01-03 19:42:00,
2013-01-03 14:53:00,81.5,66.7,29.91,East,90,4.0,7.0,61,0.00,,,0.00,meteohub,2013-01-03 19:53:00,
2013-01-03 14:58:00,81.1,66.4,29.91,South,180,3.0,11.0,61,0.00,,,0.00,meteohub,2013-01-03 19:58:00,
2013-01-03 15:03:00,80.8,66.9,29.91,East,90,4.0,11.0,63,0.00,,,0.00,meteohub,2013-01-03 20:03:00,
2013-01-03 15:08:00,81.5,67.3,29.91,SE,135,2.0,11.0,62,0.00,,,0.00,meteohub,2013-01-03 20:08:00,
2013-01-03 15:14:00,83.3,67.5,29.91,SE,135,4.0,10.0,59,0.00,,,0.00,meteohub,2013-01-03 20:14:00,
2013-01-03 15:19:00,85.6,67.1,29.92,SE,135,4.0,10.0,54,0.00,,,0.00,meteohub,2013-01-03 20:19:00,
2013-01-03 15:24:00,86.2,67.6,29.92,SE,135,2.0,8.0,54,0.00,,,0.00,meteohub,2013-01-03 20:24:00,
2013-01-03 15:29:00,85.6,66.6,29.91,SE,135,7.0,8.0,53,0.00,,,0.00,meteohub,2013-01-03 20:29:00,
2013-01-03 15:34:00,83.7,66.7,29.92,East,90,4.0,7.0,57,0.00,,,0.00,meteohub,2013-01-03 20:34:00,
2013-01-03 15:39:00,83.8,66.4,29.93,SE,135,7.0,7.0,56,0.00,,,0.00,meteohub,2013-01-03 20:39:00,
2013-01-03 15:44:00,84.7,66.7,29.92,SE,135,4.0,7.0,55,0.00,,,0.00,meteohub,2013-01-03 20:44:00,
2013-01-03 15:49:00,85.6,67.1,29.92,South,180,4.0,7.0,54,0.00,,,0.00,meteohub,2013-01-03 20:49:00,
2013-01-03 15:54:00,84.7,67.3,29.93,East,90,2.0,7.0,56,0.00,,,0.00,meteohub,2013-01-03 20:54:00,
2013-01-03 15:59:00,84.6,66.6,29.93,West,270,4.0,8.0,55,0.00,,,0.00,meteohub,2013-01-03 20:59:00,
2013-01-03 16:05:00,83.1,66.7,29.93,West,270,3.0,9.0,58,0.00,,,0.00,meteohub,2013-01-03 21:05:00,
2013-01-03 16:10:00,83.5,66.6,29.93,South,180,2.0,9.0,57,0.00,,,0.00,meteohub,2013-01-03 21:10:00,
2013-01-03 16:15:00,85.1,67.6,29.93,South,180,8.0,9.0,56,0.00,,,0.00,meteohub,2013-01-03 21:15:00,
2013-01-03 16:20:00,84.2,67.8,29.93,South,180,7.0,9.0,58,0.00,,,0.00,meteohub,2013-01-03 21:20:00,
2013-01-03 16:25:00,83.7,67.3,29.94,South,180,4.0,8.0,58,0.00,,,0.00,meteohub,2013-01-03 21:25:00,
2013-01-03 16:30:00,83.8,67.5,29.94,SE,135,4.0,7.0,58,0.00,,,0.00,meteohub,2013-01-03 21:30:00,
2013-01-03 16:35:00,82.8,67.5,29.93,South,180,3.0,7.0,60,0.00,,,0.00,meteohub,2013-01-03 21:35:00,
2013-01-03 16:40:00,83.5,67.1,29.94,South,180,3.0,5.0,58,0.00,,,0.00,meteohub,2013-01-03 21:40:00,
2013-01-03 16:41:00,83.7,66.7,29.93,SSE,158,2.0,5.0,57,0.00,,,0.00,meteohub,2013-01-03 21:41:00,
2013-01-03 16:47:00,84.4,66.4,29.94,South,180,3.0,5.0,55,0.00,,,0.00,meteohub,2013-01-03 21:47:00,
2013-01-03 16:52:00,84.4,67.5,29.94,SE,135,4.0,7.0,57,0.00,,,0.00,meteohub,2013-01-03 21:52:00,
2013-01-03 16:57:00,84.2,66.2,29.94,South,180,4.0,7.0,55,0.00,,,0.00,meteohub,2013-01-03 21:57:00,
2013-01-03 17:02:00,84.0,65.7,29.94,East,90,3.0,8.0,54,0.00,,,0.00,meteohub,2013-01-03 22:02:00,
2013-01-03 17:07:00,83.3,65.5,29.94,South,180,3.0,8.0,55,0.00,,,0.00,meteohub,2013-01-03 22:07:00,
2013-01-03 17:12:00,82.6,65.8,29.94,East,90,3.0,8.0,57,0.00,,,0.00,meteohub,2013-01-03 22:12:00,
2013-01-03 17:17:00,82.0,65.8,29.95,South,180,2.0,4.0,58,0.00,,,0.00,meteohub,2013-01-03 22:17:00,
2013-01-03 17:22:00,81.5,65.8,29.95,SW,225,4.0,4.0,59,0.00,,,0.00,meteohub,2013-01-03 22:22:00,
2013-01-03 17:27:00,80.6,65.5,29.95,SW,225,3.0,4.0,60,0.00,,,0.00,meteohub,2013-01-03 22:27:00,
2013-01-03 17:32:00,79.5,65.8,29.95,South,180,2.0,4.0,63,0.00,,,0.00,meteohub,2013-01-03 22:32:00,
2013-01-03 17:37:00,78.4,66.2,29.96,SE,135,2.0,4.0,66,0.00,,,0.00,meteohub,2013-01-03 22:37:00,
2013-01-03 17:42:00,77.9,66.9,29.96,South,180,4.0,4.0,69,0.00,,,0.00,meteohub,2013-01-03 22:42:00,
2013-01-03 17:47:00,77.2,66.6,29.96,South,180,2.0,4.0,70,0.00,,,0.00,meteohub,2013-01-03 22:47:00,
2013-01-03 17:52:00,76.8,67.1,29.96,South,180,3.0,4.0,72,0.00,,,0.00,meteohub,2013-01-03 22:52:00,
2013-01-03 17:57:00,76.6,67.6,29.96,SE,135,2.0,4.0,74,0.00,,,0.00,meteohub,2013-01-03 22:57:00,
2013-01-03 18:02:00,76.3,67.8,29.96,East,90,2.0,4.0,75,0.00,,,0.00,meteohub,2013-01-03 23:02:00,
2013-01-03 18:07:00,75.9,67.8,29.96,South,180,3.0,4.0,76,0.00,,,0.00,meteohub,2013-01-03 23:07:00,
2013-01-03 18:12:00,75.7,68.0,29.96,South,180,1.0,4.0,77,0.00,,,0.00,meteohub,2013-01-03 23:12:00,
2013-01-03 18:17:00,75.6,68.2,29.96,SW,225,2.0,4.0,78,0.00,,,0.00,meteohub,2013-01-03 23:17:00,
2013-01-03 18:22:00,75.4,68.4,29.96,SW,225,2.0,4.0,79,0.00,,,0.00,meteohub,2013-01-03 23:22:00,
2013-01-03 18:27:00,75.2,68.2,29.96,SE,135,2.0,4.0,79,0.00,,,0.00,meteohub,2013-01-03 23:27:00,
2013-01-03 18:32:00,75.0,68.4,29.97,SE,135,2.0,4.0,80,0.00,,,0.00,meteohub,2013-01-03 23:32:00,
2013-01-03 18:37:00,74.8,68.2,29.97,SE,135,2.0,4.0,80,0.00,,,0.00,meteohub,2013-01-03 23:37:00,
2013-01-03 18:42:00,74.5,67.8,29.97,East,90,1.0,2.0,80,0.00,,,0.00,meteohub,2013-01-03 23:42:00,
2013-01-03 18:47:00,74.5,68.5,29.98,South,180,2.0,3.0,82,0.00,,,0.00,meteohub,2013-01-03 23:47:00,
2013-01-03 18:52:00,74.3,68.4,29.98,South,180,1.0,3.0,82,0.00,,,0.00,meteohub,2013-01-03 23:52:00,
2013-01-03 18:57:00,73.9,68.2,29.98,SW,225,1.0,3.0,82,0.00,,,0.00,meteohub,2013-01-03 23:57:00,
2013-01-03 19:02:00,73.8,68.4,29.98,South,180,1.0,3.0,83,0.00,,,0.00,meteohub,2013-01-04 00:02:00,
2013-01-03 19:07:00,73.4,68.2,29.98,South,180,1.0,2.0,84,0.00,,,0.00,meteohub,2013-01-04 00:07:00,
2013-01-03 19:12:00,73.2,68.4,29.99,SW,225,1.0,2.0,85,0.00,,,0.00,meteohub,2013-01-04 00:12:00,
2013-01-03 19:17:00,73.2,68.4,29.99,SE,135,1.0,2.0,85,0.00,,,0.00,meteohub,2013-01-04 00:17:00,
2013-01-03 19:22:00,73.0,68.2,29.99,SE,135,3.0,3.0,85,0.00,,,0.00,meteohub,2013-01-04 00:22:00,
2013-01-03 19:27:00,73.2,68.7,29.99,South,180,1.0,3.0,86,0.00,,,0.00,meteohub,2013-01-04 00:27:00,
2013-01-03 19:32:00,73.2,68.4,29.99,SW,225,1.0,3.0,85,0.00,,,0.00,meteohub,2013-01-04 00:32:00,
2013-01-03 19:37:00,73.0,68.5,29.99,SW,225,1.0,4.0,86,0.00,,,0.00,meteohub,2013-01-04 00:37:00,
2013-01-03 19:42:00,73.0,68.5,29.99,SW,225,1.0,4.0,86,0.00,,,0.00,meteohub,2013-01-04 00:42:00,
2013-01-03 19:47:00,72.9,68.4,30.00,SW,225,1.0,2.0,86,0.00,,,0.00,meteohub,2013-01-04 00:47:00,
2013-01-03 19:52:00,72.9,68.4,29.99,SE,135,1.0,2.0,86,0.00,,,0.00,meteohub,2013-01-04 00:52:00,
2013-01-03 19:57:00,72.7,68.5,30.00,South,180,1.0,2.0,87,0.00,,,0.00,meteohub,2013-01-04 00:57:00,
2013-01-03 20:02:00,72.7,68.5,30.00,SW,225,2.0,2.0,87,0.00,,,0.00,meteohub,2013-01-04 01:02:00,
2013-01-03 20:07:00,72.9,68.7,30.00,SW,225,2.0,3.0,87,0.00,,,0.00,meteohub,2013-01-04 01:07:00,
2013-01-03 20:12:00,72.9,68.7,30.00,SW,225,1.0,3.0,87,0.00,,,0.00,meteohub,2013-01-04 01:12:00,
2013-01-03 20:17:00,72.7,68.5,30.00,South,180,2.0,3.0,87,0.00,,,0.00,meteohub,2013-01-04 01:17:00,
2013-01-03 20:22:00,72.7,68.5,30.00,SW,225,1.0,3.0,87,0.00,,,0.00,meteohub,2013-01-04 01:22:00,
2013-01-03 20:27:00,72.3,68.5,30.01,WSW,248,1.0,2.0,88,0.00,,,0.00,meteohub,2013-01-04 01:27:00,
2013-01-03 20:32:00,72.1,68.4,30.01,SW,225,0.0,2.0,88,0.00,,,0.00,meteohub,2013-01-04 01:32:00,
2013-01-03 20:37:00,72.0,68.2,30.01,SW,225,0.0,1.0,88,0.00,,,0.00,meteohub,2013-01-04 01:37:00,
2013-01-03 20:42:00,71.4,68.0,30.01,South,180,0.0,1.0,89,0.00,,,0.00,meteohub,2013-01-04 01:42:00,
2013-01-03 20:47:00,71.2,67.8,30.01,South,180,0.0,1.0,89,0.00,,,0.00,meteohub,2013-01-04 01:47:00,
2013-01-03 20:52:00,70.9,67.8,30.01,South,180,0.0,1.0,90,0.00,,,0.00,meteohub,2013-01-04 01:52:00,
2013-01-03 20:57:00,70.7,68.0,30.01,East,90,2.0,0.0,91,0.00,,,0.00,meteohub,2013-01-04 01:57:00,
2013-01-03 21:02:00,70.7,68.2,30.01,South,180,0.0,2.0,92,0.00,,,0.00,meteohub,2013-01-04 02:02:00,
2013-01-03 21:07:00,70.5,68.0,30.01,South,180,0.0,2.0,92,0.00,,,0.00,meteohub,2013-01-04 02:07:00,
2013-01-03 21:12:00,70.2,68.0,30.02,South,180,1.0,2.0,93,0.00,,,0.00,meteohub,2013-01-04 02:12:00,
2013-01-03 21:17:00,70.3,68.5,30.01,SW,225,0.0,1.0,94,0.00,,,0.00,meteohub,2013-01-04 02:17:00,
2013-01-03 21:22:00,70.3,68.5,30.01,South,180,0.0,2.0,94,0.00,,,0.00,meteohub,2013-01-04 02:22:00,
2013-01-03 21:27:00,70.3,68.5,30.01,South,180,1.0,2.0,94,0.00,,,0.00,meteohub,2013-01-04 02:27:00,
2013-01-03 21:32:00,70.3,68.5,30.02,South,180,0.0,2.0,94,0.00,,,0.00,meteohub,2013-01-04 02:32:00,
2013-01-03 21:37:00,70.0,68.5,30.01,South,180,1.0,1.0,95,0.00,,,0.00,meteohub,2013-01-04 02:37:00,
2013-01-03 21:42:00,70.0,68.5,30.01,South,180,0.0,1.0,95,0.00,,,0.00,meteohub,2013-01-04 02:42:00,
2013-01-03 21:47:00,70.2,68.9,30.01,South,180,0.0,1.0,96,0.00,,,0.00,meteohub,2013-01-04 02:47:00,
2013-01-03 21:52:00,70.0,68.7,30.01,South,180,0.0,1.0,96,0.00,,,0.00,meteohub,2013-01-04 02:52:00,
2013-01-03 21:57:00,69.8,68.5,30.02,South,180,0.0,1.0,96,0.00,,,0.00,meteohub,2013-01-04 02:57:00,
2013-01-03 22:02:00,69.6,68.4,30.01,South,180,0.0,1.0,96,0.00,,,0.00,meteohub,2013-01-04 03:02:00,
2013-01-03 22:07:00,69.4,68.2,30.01,South,180,0.0,0.0,96,0.00,,,0.00,meteohub,2013-01-04 03:07:00,
2013-01-03 22:12:00,69.3,68.4,30.01,South,180,0.0,0.0,97,0.00,,,0.00,meteohub,2013-01-04 03:12:00,
2013-01-03 22:17:00,69.3,68.4,30.01,South,180,1.0,1.0,97,0.00,,,0.00,meteohub,2013-01-04 03:17:00,
2013-01-03 22:22:00,69.3,68.7,30.01,South,180,0.0,2.0,98,0.00,,,0.00,meteohub,2013-01-04 03:22:00,
2013-01-03 22:27:00,69.4,68.9,30.01,South,180,0.0,2.0,98,0.00,,,0.00,meteohub,2013-01-04 03:27:00,
2013-01-03 22:32:00,69.3,68.7,30.01,SSW,203,2.0,2.0,98,0.00,,,0.00,meteohub,2013-01-04 03:32:00,
2013-01-03 22:37:00,69.4,69.1,30.01,SW,225,1.0,2.0,99,0.00,,,0.00,meteohub,2013-01-04 03:37:00,
2013-01-03 22:42:00,69.6,69.3,30.01,SW,225,2.0,2.0,99,0.00,,,0.00,meteohub,2013-01-04 03:42:00,
2013-01-03 22:47:00,69.8,69.4,30.01,SW,225,1.0,2.0,99,0.00,,,0.00,meteohub,2013-01-04 03:47:00,
2013-01-03 22:52:00,69.6,69.1,30.01,South,180,1.0,2.0,98,0.00,,,0.00,meteohub,2013-01-04 03:52:00,
2013-01-03 22:57:00,69.6,69.1,30.01,South,180,1.0,2.0,98,0.00,,,0.00,meteohub,2013-01-04 03:57:00,
2013-01-03 23:02:00,69.3,68.7,30.01,South,180,0.0,1.0,98,0.00,,,0.00,meteohub,2013-01-04 04:02:00,
2013-01-03 23:07:00,69.3,68.7,30.01,SW,225,1.0,1.0,98,0.00,,,0.00,meteohub,2013-01-04 04:07:00,
2013-01-03 23:12:00,69.3,68.9,30.01,West,270,1.0,1.0,99,0.00,,,0.00,meteohub,2013-01-04 04:12:00,
2013-01-03 23:17:00,69.1,68.7,30.01,West,270,0.0,1.0,99,0.00,,,0.00,meteohub,2013-01-04 04:17:00,
2013-01-03 23:22:00,68.7,68.4,30.01,West,270,0.0,1.0,99,0.00,,,0.00,meteohub,2013-01-04 04:22:00,
2013-01-03 23:27:00,68.4,68.0,30.01,West,270,0.0,1.0,99,0.00,,,0.00,meteohub,2013-01-04 04:27:00,
2013-01-03 23:32:00,68.0,67.6,30.01,West,270,0.0,0.0,99,0.00,,,0.00,meteohub,2013-01-04 04:32:00,
2013-01-03 23:37:00,68.0,67.6,30.01,NW,315,1.0,1.0,99,0.00,,,0.00,meteohub,2013-01-04 04:37:00,
2013-01-03 23:42:00,67.6,67.3,30.01,NW,315,0.0,1.0,99,0.00,,,0.00,meteohub,2013-01-04 04:42:00,
2013-01-03 23:47:00,67.5,67.1,30.01,NW,315,0.0,1.0,99,0.00,,,0.00,meteohub,2013-01-04 04:47:00,
2013-01-03 23:52:00,67.3,66.9,30.01,NW,315,0.0,1.0,99,0.00,,,0.00,meteohub,2013-01-04 04:52:00,
2013-01-03 23:57:00,66.9,66.6,30.01,NW,315,0.0,0.0,99,0.00,,,0.00,meteohub,2013-01-04 04:57:00,